Weather in Bagovskaya

Russia / Krasnodar Krai     44°10′23″N   40°37′04″E
temp.,
°C
wind,
m/s
gust,
m/s
humid.,
%
clouds,
%
prec.,
mm/h
press.,
hPa
HPBL,
m
14 august, sun
sun1400:00+19ssw11783 0.0 100813
03:00+18sw22790 0.0 100727
06:00+18ssw21800 0.0 100717
09:00+26ne115798 0.0 1006608
12:00+27nw435467 0.0 10061176
15:00+28nne21531 0.1 1006770
18:00+26n116611 0.0 100654
21:00+20s21800 0.0 100613
15 august, mon
mon1500:00+19ssw11810 0.0 100613
03:00+18ssw11785 0.0 100611
06:00+18ene117799 0.0 100611
09:00+26ne115658 0.0 1006436
12:00+29nne22442 0.0 10061199
15:00+32n14350 0.0 10051834
18:00+27nw22621 0.0 100564
21:00+21sw22750 0.0 100615
16 august, tue
tue1600:00+20ssw11773 0.0 100711
03:00+18w24865 0.0 101096
06:00+19ssw228015 0.0 101130
09:00+25ne22611 0.0 1011795
12:00+29ne344838 0.0 10101721
15:00+26nnw237099 0.3 1011194
18:00+26sw11660 0.2 101181
21:00+20s11780 0.2 101211
17 august, wed
wed1700:00+19ssw21770 0.0 101213
03:00+18ssw21780 0.0 101214
06:00+18ssw11800 0.0 101214
09:00+25ene12590 0.0 1011557
12:00+30ene12451 0.0 10101577
15:00+31nnw234091 0.0 10081955
18:00+26wsw116581 0.1 100916
21:00+23sw227135 0.2 100927
18 august, thu
thu1800:00+18ssw22956 1.8 101026
03:00+17s22951 2.6 101018
06:00+18sw11945 1.2 101011
09:00+24n11710 1.4 1009485
12:00+28n2252100 0.4 10081396
15:00+25w117467 5.0 1008141
18:00+22wnw238811 3.2 1008106
21:00+16sse229817 4.8 101154